FW3078 Weather Reports


time (UTC)temp
F
wind
direction
speed
knots
gust
knots
rain 1hr
in
rain 24hr
in
rain mn
in
humidity
%
barometer
mb
20260507090719 38 334 0.0 3.5 0.00 0.00 0.00 83 1013.7
20260507085719 39 334 3.5 3.5 0.00 0.00 0.00 84 1013.9
20260507084719 39 356 1.7 2.6 0.00 0.00 0.00 85 1014.0
20260507083718 39 341 0.0 2.6 0.00 0.00 0.00 85 1013.7
20260507082716 39 338 1.7 1.7 0.00 0.00 0.00 86 1014.0
20260507081714 39 278 0.0 0.9 0.00 0.00 0.00 86 1014.0
20260507080713 39 0 0.0 0.9 0.00 0.00 0.00 85 1014.0
20260507075710 39 285 0.0 0.9 0.00 0.00 0.00 85 1013.9
20260507074709 39 20 0.9 0.9 0.00 0.00 0.00 86 1014.0
20260507073704 39 345 0.0 0.0 0.00 0.00 0.00 86 1014.1
20260507072704 39 337 0.0 1.7 0.00 0.00 0.00 85 1014.1
20260507071659 40 23 0.0 1.7 0.00 0.00 0.00 84 1013.9
20260507070658 40 341 1.7 1.7 0.00 0.00 0.00 84 1014.0
20260507065657 40 358 2.6 2.6 0.00 0.00 0.00 84 1014.1
20260507064657 40 12 0.0 2.6 0.00 0.00 0.00 83 1014.2
20260507063653 40 350 0.0 3.5 0.00 0.00 0.00 84 1014.3
20260507062652 41 341 1.7 2.6 0.00 0.00 0.00 84 1014.1
20260507061648 40 349 0.9 1.7 0.00 0.00 0.00 85 1014.2
20260507060643 40 0 0.0 2.6 0.00 0.00 0.00 85 1014.3
20260507055641 40 0 0.9 0.9 0.00 0.00 0.00 85 1014.3
20260507054639 41 294 0.0 0.9 0.00 0.00 0.00 85 1014.4
20260507053634 41 356 0.0 1.7 0.00 0.00 0.00 84 1014.4
20260507052630 41 240 0.0 0.9 0.00 0.00 0.00 84 1014.4
20260507051629 41 340 0.0 2.6 0.00 0.00 0.00 84 1014.4
20260507050629 42 354 0.0 2.6 0.00 0.00 0.00 84 1014.5
20260507045628 42 348 0.9 1.7 0.00 0.00 0.00 83 1014.4
20260507044628 43 264 0.0 1.7 0.00 0.00 0.00 82 1014.4
20260507043626 44 246 0.0 2.6 0.00 0.00 0.00 82 1014.4
20260507042626 44 270 0.9 1.7 0.00 0.00 0.00 82 1014.2
20260507041624 44 342 0.0 1.7 0.00 0.00 0.00 81 1014.1
20260507040624 45 355 0.9 0.9 0.00 0.00 0.00 80 1014.4
20260507035622 45 7 0.0 0.0 0.00 0.00 0.00 78 1014.2
20260507034621 45 82 0.0 2.6 0.00 0.00 0.00 76 1014.0
20260507033617 46 26 0.9 1.7 0.00 0.00 0.00 73 1014.1
20260507032617 47 352 1.7 2.6 0.00 0.00 0.00 68 1014.2
20260507031615 48 355 0.0 2.6 0.00 0.00 0.00 61 1014.3
20260507030615 49 20 0.0 1.7 0.00 0.00 0.00 57 1014.0
20260507025609 49 291 0.0 0.9 0.00 0.00 0.00 55 1013.9
20260507024604 50 357 2.6 2.6 0.00 0.00 0.00 54 1014.2
20260507023602 50 21 1.7 4.3 0.00 0.00 0.00 53 1014.2
20260507022557 50 285 0.0 5.2 0.00 0.00 0.00 54 1014.2
20260507021554 50 281 3.5 9.6 0.00 0.00 0.00 53 1014.1
20260507020549 50 209 0.9 5.2 0.00 0.00 0.00 54 1014.2
20260507015549 50 344 1.7 4.3 0.00 0.00 0.00 53 1014.0
20260507014549 50 290 1.7 4.3 0.00 0.00 0.00 53 1013.6
20260507013547 50 0 1.7 1.7 0.00 0.00 0.00 53 1013.5
20260507012542 50 255 0.0 1.7 0.00 0.00 0.00 53 1013.5
20260507011541 51 236 0.0 2.6 0.00 0.00 0.00 52 1013.4
20260507010537 50 231 3.5 4.3 0.00 0.00 0.00 52 1013.4
20260507005532 51 233 0.0 4.3 0.00 0.00 0.00 53 1013.2
20260507004531 51 245 0.0 2.6 0.00 0.00 0.00 53 1013.2
20260507003530 51 270 2.6 2.6 0.00 0.00 0.00 54 1013.1
20260507002528 51 239 1.7 3.5 0.00 0.00 0.00 51 1012.9
20260507001526 51 203 0.9 4.3 0.00 0.00 0.00 52 1012.8
20260507000526 51 225 2.6 4.3 0.00 0.00 0.00 51 1012.8
20260506235525 51 215 2.6 5.2 0.00 0.00 0.00 52 1012.8
20260506234524 51 251 0.0 3.5 0.00 0.00 0.00 50 1012.9
20260506233524 52 270 0.9 4.3 0.00 0.00 0.00 50 1012.9
20260506232523 52 286 1.7 6.1 0.00 0.00 0.00 51 1012.6
20260506231522 52 285 0.9 10.4 0.00 0.00 0.00 50 1012.8
20260506230521 52 270 1.7 5.2 0.00 0.00 0.00 50 1012.8
20260506225516 52 239 3.5 5.2 0.00 0.00 0.00 50 1012.7
20260506224515 53 1 3.5 6.1 0.00 0.00 0.00 50 1012.7
20260506223512 53 264 2.6 5.2 0.00 0.00 0.00 50 1012.9
20260506222511 53 270 1.7 3.5 0.00 0.00 0.00 52 1013.1
20260506221510 53 180 0.0 3.5 0.00 0.00 0.00 52 1013.0
20260506220508 52 279 0.0 3.5 0.00 0.00 0.00 51 1013.1
20260506215507 52 241 4.3 6.1 0.00 0.00 0.00 52 1012.9
20260506214506 52 225 0.0 4.3 0.00 0.00 0.00 52 1012.7
20260506213500 53 276 2.6 5.2 0.00 0.00 0.00 50 1012.6
20260506212459 52 287 3.5 9.6 0.00 0.00 0.00 51 1012.9
20260506211456 52 272 4.3 5.2 0.00 0.00 0.00 52 1012.8
20260506210456 53 166 0.9 3.5 0.00 0.00 0.00 51 1012.9
20260506205455 52 249 0.9 7.8 0.00 0.00 0.00 53 1013.0
20260506204455 52 243 0.0 10.4 0.00 0.00 0.00 50 1012.9
20260506203455 53 0 2.6 5.2 0.00 0.00 0.00 51 1013.0
20260506202450 53 248 1.7 4.3 0.00 0.00 0.00 51 1013.0
20260506201449 54 282 7.8 7.8 0.00 0.00 0.00 51 1013.3
20260506200448 53 256 4.3 6.1 0.00 0.00 0.00 53 1013.2
20260506195448 53 270 3.5 7.0 0.00 0.00 0.00 53 1013.3
20260506194448 53 241 5.2 9.6 0.00 0.00 0.00 51 1013.5
20260506193447 53 161 4.3 7.8 0.00 0.00 0.00 51 1013.4
20260506192447 53 247 4.3 7.0 0.00 0.00 0.00 52 1013.5
20260506191446 52 270 1.7 9.6 0.00 0.00 0.00 52 1013.4
20260506190445 52 221 5.2 6.1 0.00 0.00 0.00 55 1013.6
20260506185445 51 294 0.9 6.1 0.00 0.00 0.00 52 1013.6
20260506184445 51 333 4.3 5.2 0.00 0.00 0.00 52 1013.6
20260506183443 52 341 4.3 6.1 0.00 0.00 0.00 51 1013.5
20260506182444 51 250 4.3 9.6 0.00 0.00 0.00 53 1013.8
20260506181439 52 237 0.9 4.3 0.00 0.00 0.00 50 1013.5
20260506180437 51 359 7.0 7.0 0.00 0.00 0.00 51 1013.8
20260506175437 52 358 2.6 2.6 0.00 0.00 0.00 53 1013.8
20260506174432 51 356 1.7 4.3 0.00 0.00 0.00 57 1013.7
20260506173431 52 217 2.6 5.2 0.00 0.00 0.00 60 1014.1
20260506172431 51 297 0.9 3.5 0.00 0.00 0.00 58 1014.0
20260506171431 50 192 0.0 5.2 0.00 0.00 0.00 59 1013.9
20260506170431 50 243 0.9 2.6 0.00 0.00 0.00 60 1014.0
20260506165428 49 255 3.5 4.3 0.00 0.00 0.00 59 1014.1
20260506164426 50 247 1.7 2.6 0.00 0.00 0.00 58 1014.2
20260506163425 49 229 0.0 2.6 0.00 0.00 0.00 58 1014.2
20260506162424 52 252 6.1 7.0 0.00 0.00 0.00 62 1014.3
20260506161419 50 195 0.0 4.3 0.00 0.00 0.00 61 1014.2
20260506160414 48 296 3.5 4.3 0.00 0.00 0.00 64 1014.3
20260506155408 51 264 2.6 3.5 0.00 0.00 0.00 62 1014.3
20260506153530 50 123 1.7 3.5 0.00 0.00 0.00 62 1014.4
20260506152530 49 300 2.6 7.8 0.00 0.00 0.00 68 1014.7
20260506151526 49 267 2.6 5.2 0.00 0.00 0.00 70 1014.4
20260506150525 49 301 1.7 2.6 0.00 0.00 0.00 68 1014.4
20260506145525 47 353 1.7 4.3 0.00 0.00 0.00 68 1014.5
20260506144524 47 344 2.6 3.5 0.00 0.00 0.00 70 1014.4
20260506143520 48 0 0.0 2.6 0.00 0.00 0.00 69 1014.6
20260506142515 47 74 0.0 3.5 0.00 0.00 0.00 69 1014.4
20260506141511 45 66 0.9 1.7 0.00 0.00 0.00 69 1014.4
20260506140506 44 63 2.6 3.5 0.00 0.00 0.00 73 1014.3
20260506135506 44 96 5.2 5.2 0.00 0.00 0.00 73 1014.6
20260506134503 42 73 3.5 7.0 0.00 0.00 0.00 73 1014.2
20260506133503 42 56 3.5 4.3 0.00 0.00 0.00 72 1014.2
20260506132502 42 43 3.5 4.3 0.00 0.00 0.00 73 1014.2
20260506131457 41 21 4.3 5.2 0.00 0.00 0.00 75 1014.2
20260506130456 41 25 3.5 4.3 0.00 0.00 0.00 75 1014.3
20260506125452 41 344 3.5 4.3 0.00 0.00 0.00 76 1014.1
20260506124447 41 63 2.6 3.5 0.00 0.00 0.00 77 1013.8
20260506123442 41 60 1.7 5.2 0.00 0.00 0.00 76 1013.8
20260506122442 40 32 0.0 6.1 0.00 0.00 0.00 76 1013.5
20260506121437 40 38 2.6 2.6 0.00 0.00 0.00 77 1013.3
20260506120432 39 14 2.6 4.3 0.00 0.00 0.00 76 1013.3
20260506115427 39 82 0.9 2.6 0.00 0.00 0.00 78 1013.1
20260506114422 39 3 1.7 5.2 0.00 0.00 0.00 77 1013.2
20260506113418 39 19 2.6 8.7 0.00 0.00 0.00 76 1013.2
20260506112418 39 23 2.6 6.1 0.00 0.00 0.00 77 1013.4
20260506111413 38 324 1.7 4.3 0.00 0.00 0.00 79 1013.1
20260506110408 38 26 0.9 4.3 0.00 0.00 0.00 80 1013.2
20260506105406 38 17 4.3 5.2 0.00 0.00 0.00 82 1012.6
20260506104401 38 10 1.7 4.3 0.00 0.00 0.00 83 1012.7
20260506103356 38 0 2.6 5.2 0.00 0.00 0.00 86 1012.4
20260506102351 38 0 2.6 4.3 0.00 0.00 0.00 88 1012.1
20260506101350 39 60 1.7 4.3 0.00 0.00 0.00 90 1011.8
20260506100346 39 303 2.6 7.8 0.00 0.00 0.00 91 1011.3
20260506095341 40 32 1.7 4.3 0.00 0.00 0.00 92 1011.2
20260506094337 40 11 0.9 2.6 0.00 0.00 0.00 93 1011.2
20260506093337 40 16 1.7 2.6 0.00 0.00 0.00 92 1011.0
20260506092333 40 26 0.9 2.6 0.00 0.00 0.00 92 1011.0
20260506091327 40 26 0.9 1.7 0.00 0.00 0.00 93 1011.0